Location: Bower School (historical)
(37.8389°N, 89.5348°W)
Time: 02:26:13
(UTC+00:00)

OAO 2 Rocket - Pass Details

Date: 11 December 2025
Orbit: 669 x 734 km, 35.0° (Epoch: 15 January)

Event Time Altitude Azimuth Distance (km) Brightness Sun altitude
Exits shadow 12:06:06 - 253° (WSW) 2,361 5.6 -11.2°
Reaches altitude 10° 12:06:31 10° 252° (WSW) 2,205 5.4 -11.1°
Maximum altitude 12:11:37 61° 173° (S) 809 3.8 -10.2°
Drops below altitude 10° 12:16:38 10° 94° (E) 2,168 7.2 -9.2°
Sets 12:19:03 0° 91° (E) 3,075 8.1 -8.8°
